FALCON 9 DEB (44295 NORAD) Tracking and Keplerian Element Data

This shows tracking and keplerian element data for the satellite.

Feedback or suggestion? Click here.




ElementValue
Catalog44295
NameFALCON 9 DEB
Epoch Orbit583
Epoch Day173.90909394
Epoch Year2019
RAAN33.7888
Inclination53.0038
Eccentricity0.0009714
Argument of Perigee1.2104
Mean Anonmoly358.8922
Mean Motion15.42322767
Decay Rate8.58E-06
L11 44295U 19029BN 19173.90909394 .00000858 00000-0 29154-4 0 9995
L22 44295 53.0038 33.7888 0009714 1.2104 358.8922 15.42322767 5833

Live tracking and technical data element details for FALCON 9 DEB (NORAD 44295). FALCON 9 DEB can be tracked NOW for your location showing map with azimuth and elevation plus other details from your city location.

Track the satellite on the map from your city or location and see movement details for azimuth, elevation, latitude, longitude, range, height, and movement on the map or in text.







IsCatalogInMostPopularTable: catalog: 44295, numindb: 23
Update: records affected: 1



GetName: 44295 FALCON 9 DEB

Hit Count: updated at: Fri, 19 Jul 2019 07:56:23 GMT